Terminal Aerodrome Forecast
Issued by NWS Dallas/Fort Worth, TX

Home | Current Version | Previous Version | Text Only | Print | Product List | Glossary On
Versions: 1 2 3 4 5 6 7 8 9 10 11 12 13 14 15 16 17 18 19 20 21 22 23 24 25 26 27
000
FTUS44 KFWD 272300
TAFACT
TAF
KACT 272327Z 2800/2824 34017KT P6SM BKN050 OVC100
     FM281000 35011KT P6SM -RA OVC050
     FM281600 34005KT P6SM BKN070=

USA.gov is the U.S. government's official web portal to all federal, state and local government web resources and services.